TimeCST,TemperatureF,Dew PointF,Humidity,Sea Level PressureIn,VisibilityMPH,Wind Direction,Wind SpeedMPH,Gust SpeedMPH,PrecipitationIn,Events,Conditions,WindDirDegrees,DateUTC
12:15 AM,13.3,7.7,78,30.77,10.0,Calm,Calm,-,N/A,,Clear,0,2013-11-12 06:15:00
12:35 AM,12.4,7.0,79,30.77,10.0,Calm,Calm,-,N/A,,Clear,0,2013-11-12 06:35:00
12:55 AM,11.8,6.8,80,30.77,10.0,Calm,Calm,-,N/A,,Clear,0,2013-11-12 06:55:00
1:15 AM,11.3,6.4,81,30.77,10.0,Calm,Calm,-,N/A,,Clear,0,2013-11-12 07:15:00
1:35 AM,10.2,5.9,83,30.78,10.0,Calm,Calm,-,N/A,,Clear,0,2013-11-12 07:35:00
1:55 AM,10.0,5.7,83,30.78,10.0,NW,4.6,-,N/A,,Clear,320,2013-11-12 07:55:00
2:15 AM,9.5,5.9,85,30.78,10.0,NW,4.6,-,N/A,,Clear,320,2013-11-12 08:15:00
2:35 AM,9.1,5.4,85,30.79,10.0,NNW,3.5,-,N/A,,Clear,330,2013-11-12 08:35:00
2:55 AM,9.3,5.4,84,30.79,10.0,NNW,3.5,-,N/A,,Clear,330,2013-11-12 08:55:00
3:15 AM,9.1,5.0,83,30.78,10.0,NW,3.5,-,N/A,,Clear,320,2013-11-12 09:15:00
3:35 AM,8.8,4.8,84,30.78,10.0,NNW,4.6,-,N/A,,Clear,330,2013-11-12 09:35:00
3:55 AM,7.7,3.2,82,30.78,10.0,Calm,Calm,-,N/A,,Clear,0,2013-11-12 09:55:00
4:15 AM,7.7,3.7,84,30.78,10.0,Calm,Calm,-,N/A,,Clear,0,2013-11-12 10:15:00
4:35 AM,6.8,3.2,85,30.78,10.0,NW,3.5,-,N/A,,Clear,320,2013-11-12 10:35:00
4:55 AM,7.3,3.9,86,30.79,10.0,Calm,Calm,-,N/A,,Clear,0,2013-11-12 10:55:00
5:15 AM,6.6,2.5,83,30.79,10.0,NW,3.5,-,N/A,,Clear,320,2013-11-12 11:15:00
5:35 AM,7.2,3.4,85,30.79,10.0,NW,3.5,-,N/A,,Clear,320,2013-11-12 11:35:00
5:55 AM,6.8,2.7,83,30.80,10.0,Calm,Calm,-,N/A,,Clear,0,2013-11-12 11:55:00
6:15 AM,6.8,2.7,83,30.80,10.0,Calm,Calm,-,N/A,,Clear,0,2013-11-12 12:15:00
6:35 AM,7.2,2.8,82,30.80,10.0,Calm,Calm,-,N/A,,Clear,0,2013-11-12 12:35:00
6:55 AM,7.5,3.0,82,30.81,10.0,Calm,Calm,-,N/A,,Clear,0,2013-11-12 12:55:00
7:15 AM,7.2,3.0,83,30.81,10.0,Calm,Calm,-,N/A,,Clear,0,2013-11-12 13:15:00
7:35 AM,7.2,3.2,84,30.80,10.0,Calm,Calm,-,N/A,,Clear,0,2013-11-12 13:35:00
7:55 AM,8.4,4.8,85,30.81,10.0,Calm,Calm,-,N/A,,Clear,0,2013-11-12 13:55:00
8:15 AM,10.0,6.1,84,30.82,10.0,Calm,Calm,-,N/A,,Clear,0,2013-11-12 14:15:00
8:35 AM,12.0,7.2,81,30.82,10.0,Calm,Calm,-,N/A,,Clear,0,2013-11-12 14:35:00
8:55 AM,14.0,8.6,79,30.82,10.0,Calm,Calm,-,N/A,,Clear,0,2013-11-12 14:55:00
9:15 AM,17.1,11.8,80,30.82,10.0,Calm,Calm,-,N/A,,Clear,0,2013-11-12 15:15:00
9:35 AM,20.3,10.8,67,30.82,10.0,SW,6.9,-,N/A,,Clear,220,2013-11-12 15:35:00
9:55 AM,21.2,9.3,60,30.80,10.0,SW,8.1,-,N/A,,Clear,230,2013-11-12 15:55:00
10:15 AM,22.3,9.1,57,30.80,10.0,SSW,9.2,-,N/A,,Clear,210,2013-11-12 16:15:00
10:35 AM,23.4,11.3,60,30.79,10.0,SW,8.1,-,N/A,,Clear,220,2013-11-12 16:35:00
10:55 AM,25.0,10.2,54,30.78,10.0,South,8.1,-,N/A,,Clear,190,2013-11-12 16:55:00
11:15 AM,27.0,9.3,48,30.77,10.0,SSW,8.1,-,N/A,,Clear,200,2013-11-12 17:15:00
11:35 AM,28.6,9.3,44,30.76,10.0,South,8.1,-,N/A,,Clear,190,2013-11-12 17:35:00
11:55 AM,29.8,9.3,42,30.75,10.0,SSW,9.2,-,N/A,,Clear,200,2013-11-12 17:55:00
12:15 PM,31.1,8.4,39,30.73,10.0,SSW,10.4,-,N/A,,Clear,200,2013-11-12 18:15:00
12:35 PM,32.2,7.9,36,30.71,10.0,SSW,11.5,-,N/A,,Clear,210,2013-11-12 18:35:00
12:55 PM,33.8,8.1,34,30.70,10.0,SSW,11.5,-,N/A,,Clear,210,2013-11-12 18:55:00
1:15 PM,34.2,7.0,32,30.68,10.0,SW,10.4,-,N/A,,Clear,220,2013-11-12 19:15:00
1:35 PM,35.1,7.9,32,30.67,10.0,SSW,13.8,-,N/A,,Clear,210,2013-11-12 19:35:00
1:55 PM,36.0,9.3,33,30.65,10.0,SW,13.8,17.3,N/A,,Clear,220,2013-11-12 19:55:00
2:15 PM,36.5,9.7,33,30.64,10.0,SW,12.7,-,N/A,,Clear,220,2013-11-12 20:15:00
2:35 PM,37.4,10.4,33,30.63,10.0,SSW,15.0,-,N/A,,Clear,210,2013-11-12 20:35:00
2:55 PM,37.4,10.9,34,30.63,10.0,SSW,13.8,-,N/A,,Clear,200,2013-11-12 20:55:00
3:15 PM,37.6,11.3,34,30.61,10.0,SW,12.7,19.6,N/A,,Clear,220,2013-11-12 21:15:00
3:35 PM,37.6,12.2,35,30.60,10.0,SSW,10.4,17.3,N/A,,Clear,210,2013-11-12 21:35:00
3:55 PM,37.4,12.6,36,30.59,10.0,SSW,13.8,-,N/A,,Clear,210,2013-11-12 21:55:00
4:15 PM,37.4,13.1,37,30.58,10.0,SSW,11.5,17.3,N/A,,Clear,210,2013-11-12 22:15:00
4:35 PM,36.5,13.6,39,30.58,10.0,SSW,10.4,-,N/A,,Clear,200,2013-11-12 22:35:00
4:55 PM,35.1,14.0,42,30.56,10.0,SSW,9.2,-,N/A,,Clear,200,2013-11-12 22:55:00
5:15 PM,32.5,14.7,48,30.56,10.0,South,5.8,-,N/A,,Clear,180,2013-11-12 23:15:00
5:35 PM,31.3,14.9,51,30.55,10.0,SSE,6.9,-,N/A,,Clear,160,2013-11-12 23:35:00
5:55 PM,29.5,15.4,56,30.55,10.0,SSE,4.6,-,N/A,,Clear,150,2013-11-12 23:55:00
6:15 PM,28.2,15.3,58,30.55,10.0,SSE,5.8,-,N/A,,Clear,160,2013-11-13 00:15:00
6:35 PM,28.0,14.9,58,30.56,10.0,SSE,3.5,-,N/A,,Clear,160,2013-11-13 00:35:00
6:55 PM,27.1,14.9,60,30.56,10.0,SSE,5.8,-,N/A,,Clear,150,2013-11-13 00:55:00
7:15 PM,26.6,15.1,62,30.56,10.0,SE,4.6,-,N/A,,Clear,140,2013-11-13 01:15:00
7:35 PM,26.2,15.3,63,30.55,10.0,SE,5.8,-,N/A,,Clear,140,2013-11-13 01:35:00
7:55 PM,24.6,15.3,68,30.55,10.0,SSE,5.8,-,N/A,,Clear,150,2013-11-13 01:55:00
8:15 PM,24.6,15.4,68,30.54,10.0,SSE,5.8,-,N/A,,Clear,150,2013-11-13 02:15:00
8:35 PM,26.4,16.3,66,30.53,10.0,SSE,6.9,-,N/A,,Clear,160,2013-11-13 02:35:00
8:55 PM,26.4,16.0,65,30.53,10.0,SSE,5.8,-,N/A,,Clear,160,2013-11-13 02:55:00
9:15 PM,26.1,16.0,66,30.52,10.0,SSE,6.9,-,N/A,,Clear,150,2013-11-13 03:15:00
9:35 PM,25.2,16.3,69,30.51,10.0,SSE,8.1,-,N/A,,Clear,160,2013-11-13 03:35:00
9:55 PM,25.9,16.5,68,30.50,10.0,SSE,6.9,-,N/A,,Clear,160,2013-11-13 03:55:00
10:15 PM,26.1,16.0,66,30.50,10.0,SSE,6.9,-,N/A,,Clear,160,2013-11-13 04:15:00
10:35 PM,25.7,15.8,66,30.49,10.0,SSE,8.1,-,N/A,,Clear,160,2013-11-13 04:35:00
10:55 PM,24.6,15.8,69,30.48,10.0,SSE,5.8,-,N/A,,Clear,150,2013-11-13 04:55:00
11:15 PM,24.6,15.6,69,30.47,10.0,South,5.8,-,N/A,,Clear,170,2013-11-13 05:15:00
11:35 PM,24.8,15.8,69,30.46,10.0,South,5.8,-,N/A,,Clear,170,2013-11-13 05:35:00
11:55 PM,25.3,16.0,68,30.45,10.0,South,6.9,-,N/A,,Clear,170,2013-11-13 05:55:00